Погода в Сыктывкаре

Погода в Сыктывкаре : погода сейчас, прогноз погоды и архив. Всё, что Вы хотите узнать о погоде в Сыктывкаре!

Поиск расширенной информации на нашем сайте:

Другие новости

Новости СМИ2

Главная страница сайта

Новости сайта

03.07.2017

Напоминаем, что на нашем специализированном сайте Метеоцентр.Азия вы можете получить высокодетализированные автоматические прогнозы погоды по пунктам России, СНГ и мира в авиационном формате (включающие направление и скорость ветра, видимость, явления погоды, количество и форму облачности, нижнюю и верхнюю границу облачности).


Погода в Сыктывкаре - сегодня

Время (UTC), дата Ветер
(°,м/с) 
Видим.   Явления Облачность Т
(°С)
Тd
(°С)
f(%) Тe
(°С)
Pmin
(гПа)
dP
(гПа)
Po
(мм)
O2
(г/м3)
Тmin Tmax R s Состояние
почвы
03 19.09.17 080 (В) 10 км  слаб. дождь  10/10 570 м 
[Sc]
+4.8 +3.7 93 +4  1013.3  -1.9  749  296  +4.8    0.8    мокрая 
06 19.09.17 080 (В) 20000 м  в посл. час ливневой дождь  10/10 240 м кучево-дожд. 
[Cb cap]
+5.1 +4.5 96 +5  1011.4  -1.9  748  295  +4.6         
09 19.09.17 090 (В) 10 км  слаб. морось{ливн. осадки, дождь}  10/10 180 м 
[St]
+5.8 +5.3 97 +4  1009  -2.3  746  294           
12 19.09.17 090 (В) 2{10}  10 км  гроза, ливневой дождь  10/10 240 м кучево-дожд. 
[Cb cap]
+6 +5.4 96 +6  1007.1  -1.8  745  293           
15 19.09.17 070 (В) 10 км  слаб. ливневой дождь{гроза}  10/10 270 м кучево-дожд. 
[Cb cap]
+5.9 +5.5 97 +6  1006.1  -1  744  293    +6.2     
18 19.09.17 060 (СВ) 10 км  слаб. морось{ливн. осадки, дождь}  10/10 120 м 
[St]
+5.6 +5.3 98 +5  1004.9  -1.2  743  293           
21 19.09.17 050 (СВ) 10 км  слаб. ливневой дождь{морось}  10/10 180 м кучево-дожд. 
[Cb cap]
+5.4 +5.2 99 +6  1005.2  0.2  743  293           
00 20.09.17 040 (СВ) 10 км  слаб. ливневой дождь{морось}  10/10 150 м кучево-дожд. 
[Cb cap]
+5.2 +5 99 +6  1006  0.8  744  293           
03 20.09.17 360 (С) 10 км  слаб. дождь{ливн. осадки}  10/6 300 м средняя 
[Sc|As op]
+5.1 +4.9 99 +6  1007.8  1.8  745  294  +5.1       
06 20.09.17 340 (С) 20000 м  {ливн. осадки, дождь}  10/10 300 м 
[Sc]
+6.1 +5.8 98 +7  1011.2  3.4  748  294           
09 20.09.17 010 (С) 20000 м    10/10 660 м 
[Sc]
+6.6 +5.8 95 +6  1014.5  3.3  750  294           
12 20.09.17 340 (С) 20000 м    10/10 420 м 
[Sc]
+6.2 +5.4 95 +7  1017.7  753  296           
15 20.09.17 360 (С) 20000 м    10/10 400 м 
[Sc]
+5.7 +5 95 +7  1020.4  2.7  755  297    +7  0.3     
18 20.09.17 010 (С) 10 км  {дождь}  10/8 660 м средняя 
[Sc|Ac trans]
+5.2 +4.4 95 +5  1023  2.5  756  298           
21 20.09.17 360 (С) 10 км    10/5 600 м средняя 
[Sc|Ac und]
+4.8 +4.1 95 +4  1025.1  758  299           
00 21.09.17 350 (С) 10 км    10/8 300 м средняя 
[Sc|Ac und]
+3.7 +3.1 96 +5  1027.1  759  301           
03 21.09.17 340 (С) 20000 м  в посл. час дождь  10/10 210 м 
[Frnb]
+3.8 +3.3 97 +5  1029.2  761  302  +3.6    0.3     
06 21.09.17 360 (С) 20000 м  {дождь}  10/10 180 м 
[St]
+4.3 +3.7 96 +4  1031.3  2.1  763  302           
09 21.09.17 360 (С) 20000 м    10/10 400 м 
[Sc]
+5.9 +4.1 88 +7  1033.1  1.9  764  301           
12 21.09.17 330 (СЗ) 20000 м    9/5 600 м средняя 
[Sc|Ac trans]
+7.7 +4.6 81 +8  1034.3  1.2  765  299           
15 21.09.17 300 (СЗ) 20000 м    10/6 800 м средняя 
[Sc|Ac lent]
+4.7 +3.9 95 +6  1035.7  1.2  766  303    +8.3       
18 21.09.17 290 (З) 10 км    6/0 средняя 
[Ac trans]
+2.2 +1.8 97 +3  1037  1.1  767  306           
21 21.09.17 тихо ()   10 км    10/0 средняя 
[Ac und]
+0.9 +0.7 99 +1  1038.4  1.3  768  308           
00 22.09.17 тихо ()   10 км    10/0 средняя 
[Ac As]
+2.7 +2.4 98 +3  1039.3  768  306           
03 22.09.17 тихо ()   20000 м    10/8 570 м средняя 
[Sc|As op]
+3.5 +3.1 97 +4  1039.9  0.7  769  305  +0.9         
Время (UTC), дата Ветер
(°,м/с) 
Видим.   Явления Облачность Т
(°С)
Тd
(°С)
f(%) Тe
(°С)
Pmin
(гПа)
dP
(гПа)
Po
(мм)
O2
(г/м3)
Тmin Tmax R s Состояние
почвы

Для получения пояснительной информации подведите курсор к названию столбца.

ПОГОДА в Сыктывкаре - архив

Всё, что Вы хотите узнать о погоде в Сыктывкаре - удобно и подробно!

Выберите нужную дату (начиная с 1 января 2015* года) и нажмите кнопку "Найти".
Будут отображены архивные сводки погоды по пункту Сыктывкар, начиная с указанной даты.


Отображать данные в формате CSV (для использования в таблицах Excel)


Внимание! Наш архив погоды предназначен исключительно для личного некоммерческого использования в познавательных целях. Если Вам необходимы официальные справки о состоянии погоды (для производственных, юридических, коммерческих и т.п. целей), обращайтесь в органы Росгидромета.

*Примечание: данная дата относится к архиву по метеостанциям СССР (Россия, СНГ, Балтия).
Архив по метеостанциям Зарубежной Европы и Азии (кроме Китая) хранится 10 дней, по другим регионам земного шара (Китай, Африка, Америка, Австралия, Океания) - 1 день.

Сыктывкар - район местоположения метеостанции


Название, широта, долгота, высота метеостанции:
Сыктывкар (город) 61.7°ш. 50.8°д. 104 м над ур. моря [Российская Федерация]

Дополнительная информация

В oтличие oт бoльшинства пoгoдных сайтoв мы публикуем пoдрoбную метеoинфoрмацию в детальнoм прoфессиoнальнoм фoрмате.

Характеристики температуры и влажнoсти вoздуха измеряются на высoте 2 м в тени вдали oт зданий и деревьев.
Скoрoсть ветра измеряется на высoте 10 м (на урoвне рoста челoвека скoрoсть ветра ниже в 1.5-2 раза). Если метеoстанция нахoдится в гoрoде или в лесу, тo скoрoсть ветра занижена на 2-4 м/с пo сравнению с oткрытым местoм. Скoрoсть ветра над акватoриями крупных рек и oзёр, а также на вершинах хoлмoв на 2-5 м/с выше, чем в oбычных услoвиях.
Атмoсфернoе давление в разных тoчках местнoсти мoжет значительнo oтличаться oт давления на метеoстанции, в зависимoсти oт услoвий рельефа (при пoдъёме на 10 м давление пoнижается примернo на 1 мм рт.ст.).